Cloud_Cover
100 100 100 100 100 100 100 100 100 100 100 100 100 100 100 100 100 100 100 100 100 100 100 100 96 100 100
100 100 100 100 100 100 100 100 100 100 100 100 100 100 100 100 100 100 100 100 100 100 100 100 100 99 100
100 100 100 100 100 100 100 100 100 100 100 100 100 100 88 29 53 53 52 30 86 100 100 100 94 79 89
100 100 100 100 100 100 100 100 100 99 100 100 92 85 100 43 33 10 5 15 32 48 24 29 5 44 92
100 100 100 100 100 100 97 100 76 98 66 77 98 85 100 100 100 100 100 74 35 5 40 44 97 99 100
100 100 100 100 100 89 94 100 100 100 100 100 100 100 100 100 99 80 5 5 5 5 33 98 90 100 100
100 100 100 100 100 100 100 98 92 75 46 25 25 8 5 1 0 4 5 5 5 6 87 98 100 100 100
60 60 58 61 43 13 6 5 5 5 5 54 5 5 5 5 4 5 5 5 5 7 6 41 97 78 100
5 5 8 5 6 5 43 5 34 5 5 8 5 5 5 5 5 4 5 5 5 5 12 45 90 100 84
56 60 34 5 6 5 5 5 75 37 6 53 41 100 31 8 7 5 5 4 5 5 5 38 95 97 93
22 5 5 5 5 5 20 48 74 98 87 100 99 100 100 100 83 31 5 5 5 5 5 5 6 64 85
5 5 5 53 64 82 100 100 100 100 100 100 100 100 100 99 96 9 5 5 5 5 5 5 5 6 16
7 5 70 77 60 100 100 100 100 100 100 100 100 100 96 99 86 85 80 18 64 5 5 5 5 16 24
5 59 73 100 100 100 100 100 100 100 99 5 86 84 94 91 97 100 100 100 93 43 16 18 31 21 98
100 100 100 100 100 100 100 100 100 100 100 74 54 97 96 95 95 92 85 91 57 6 40 52 5 6 57
100 100 100 100 100 100 100 100 100 100 100 100 88 95 43 37 27 100 100 88 8 5 64 100 99 15 100
100 100 100 100 100 100 99 100 93 93 100 100 100 100 100 85 5 5 5 5 7 46 69 100 80 32 45